Погода в Пасуруане

Индонезия     7°39′14″S   112°54′27″E
темп.,
°C
ветер,
м/с
пор.,
м/с
влажн.,
%
обл.,
%
осадки,
мм/ч
давл.,
гПа
погр.,
м
2 марта, вт
вт201:00+22ююз128945 1.6 101027
04:00+22ююз119012 0.1 100929
07:00+24з128722 0.1 1010176
10:00+27с237241 0.2 1011656
13:00+28с237054 1.8 1009811
16:00+26с128758 5.1 1008249
19:00+23ююз128979 9.8 101037
22:00+23ююв2285100 0.5 101135
3 марта, ср
ср301:00+22ю227996 0.5 101037
04:00+22ю117150 0.0 100930
07:00+25юв117057 0.0 1010101
10:00+29ссв216123 0.0 1011769
13:00+29ссв326516 1.1 1008862
16:00+27ссв12734 1.9 1008596
19:00+23ю119123 8.1 101024
22:00+23юз129295 5.9 101242
4 марта, чт
чт401:00+22юз118998 6.3 101140
04:00+22ююз118999 0.0 101032
07:00+24ююв018299 0.0 101277
10:00+28с226691 0.1 1012749
13:00+29с117189 2.8 1009864
16:00+25юв1191100 8.6 100851
19:00+22ю229398 12.9 101143
22:00+22ююз1286100 0.3 101235
5 марта, пт
пт501:00+22ю2282100 0.3 101035
04:00+22ююз1278100 0.0 101036
07:00+24ююв1173100 0.0 101169
10:00+28ссв2260100 0.1 1011778
13:00+28ссв1172100 2.5 1009587
16:00+25в238594 7.2 1008242
19:00+23ю239297 10.2 101067
22:00+22ю1289100 0.1 101148
6 марта, сб
сб601:00+22ю118798 0.1 100936
04:00+22ююз1287100 0.0 100931
07:00+24юз018596 0.0 1011143
10:00+28ссв227150 0.6 1011778
13:00+27ссв227550 2.3 1008746
16:00+25ссв128864 4.8 1008362
19:00+23ююз119382 8.8 101048
22:00+22ююз1292100 0.7 101135